Powrót do katalogu

BEIDOU 3 G4

AktywnyNawigacjaGEO
NORAD 56564·PAYLOAD·🇨🇳 China

Wystrzelony May 17, 2023 z Xichang Satellite Launch Center

Loading…

TLE

ŚwieżeSource: Space-Track

Epoka: Sep 14, 2026, 23:01 UTC

1 56564U 23066A   26257.95926758 -.00000288  00000-0  00000-0 0  9995
2 56564   0.4401 357.4638 0005247 197.3973 284.4581  1.00270474 12291

Śledź BEIDOU 3 G4 w czasie rzeczywistym z AllMySat

Download on the App Store